Flag for Colombia Weather past 2 weeks in San Juan de Pasto, Colombia

Now
70 °F

Passing clouds.


Feels Like: 70 °F
Forecast: 51 / 63 °F
Wind: 3 mph from Southwest

Location: Cali / Alfonso Bonillaaragon

Current Time: Mar 7, 2015 at 12:27:30 AM

Latest Report: Mar 7, 2015 at 12:00 AM


Visibility: 4 mi

Pressure: 29.97 "Hg

Humidity: 100%

Dew point: 70 °F

Location of San Juan de PastoLocation

Historic Weather in San Juan de Pasto — Graph

°F

San Juan de Pasto temperature yesterday

Maximum temperature yesterday: 88 °F (at 3:00 PM)
Minimum temperature yesterday: 66 °F (at 3:00 AM)
Average temperature yesterday: 75 °F

Past Weeks' High & Low Weather Summary

 TemperatureHumidityPressure
High90 °F (Feb 21, 3:00 PM)100% (Feb 21, 7:00 AM)30.35 "Hg (Feb 21, 7:00 AM)
Low57 °F (Mar 2, 12:00 AM)38% (Feb 23, 3:00 PM)29.72 "Hg (Feb 27, 4:00 PM)
Average76 °F72%29.93 "Hg
* Reported Feb 19 11:00 PM — Mar 6 11:00 PM, San Juan de Pasto, Weather by CustomWeather, © 2015

Note: Actual official high and low records may vary slightly from our data, if they occured in-between our weather recording intervals... More about our weather records

Advertising

San Juan de Pasto weather history for previous 24 hours

 ConditionsComfort  
Time TempWeatherWind HumidityBarometerVisibility
11:00 PM
Fri, Mar 6
72 °FPassing clouds.3 mph94%29.98 "Hg5 mi
10:00 PM72 °FPassing clouds.No wind94%29.96 "Hg5 mi
9:00 PM72 °FDrizzle. Overcast.2 mph88%29.95 "Hg6 mi
8:00 PM72 °FDrizzle. Overcast.3 mph88%29.93 "Hg6 mi
7:00 PM73 °FScattered showers. Partly cloudy.8 mph83%29.90 "HgN/A
6:00 PM81 °FScattered showers. Broken clouds.3 mph62%29.84 "HgN/A
5:00 PM84 °FScattered showers. Broken clouds.13 mph55%29.81 "HgN/A
4:00 PM88 °FScattered showers. Scattered clouds.8 mph46%29.80 "HgN/A
3:00 PM88 °FScattered clouds.10 mph49%29.82 "HgN/A
2:00 PM86 °FScattered clouds.7 mph49%29.84 "HgN/A
1:00 PM86 °FScattered clouds.5 mph52%29.89 "HgN/A
12:00 PM84 °FScattered clouds.5 mph55%29.92 "HgN/A
11:00 AM81 °FScattered clouds.7 mph62%29.96 "HgN/A
10:00 AM77 °FScattered clouds.5 mph69%29.98 "Hg6 mi
9:00 AM77 °FPartly sunny.2 mph69%29.98 "Hg5 mi
8:00 AM73 °FPartly sunny.No wind78%29.97 "Hg6 mi
7:00 AM66 °FPartly sunny.3 mph100%29.96 "Hg6 mi
6:00 AM66 °FPassing clouds.No wind94%29.93 "HgN/A
5:00 AM66 °FPassing clouds.No wind94%29.92 "HgN/A
4:00 AM66 °FPassing clouds.No wind94%29.91 "HgN/A
3:00 AM66 °FPassing clouds.No wind94%29.91 "HgN/A
2:00 AM70 °FPassing clouds.No wind88%29.92 "HgN/A
1:00 AM70 °FPassing clouds.No wind88%29.94 "HgN/A
12:00 AM72 °FPassing clouds.5 mph83%29.96 "HgN/A
Weather by CustomWeather, © 2015

See weather overviewHow to use our weather pages